GW2924 Weather Reports


Display with metric or nautical units.
time (UTC)temp
F
wind
direction
speed
MPH
gust
MPH
rain 1hr
in
rain 24hr
in
rain mn
in
humidity
%
barometer
mb
20260503180556 69 293 5.0 10.0 0.00 0.00 0.00 35 1006.6
20260503180100 69 293 4.0 11.0 0.00 0.00 0.00 39 1006.5
20260503175556 69 283 3.0 11.0 0.00 0.00 0.00 34 1006.6
20260503175056 68 346 3.0 9.0 0.00 0.00 0.00 39 1006.6
20260503174556 68 302 4.0 9.0 0.00 0.00 0.00 37 1006.7
20260503174053 68 284 5.0 9.0 0.00 0.00 0.00 36 1006.7
20260503173557 68 303 2.0 9.0 0.00 0.00 0.00 38 1006.7
20260503173100 68 304 4.0 9.0 0.00 0.00 0.00 38 1006.7
20260503172552 68 321 4.0 8.0 0.00 0.00 0.00 38 1006.8
20260503172058 67 314 3.0 12.0 0.00 0.00 0.00 44 1006.9
20260503171558 68 297 6.0 12.0 0.00 0.00 0.00 39 1006.9
20260503171056 68 302 3.0 9.0 0.00 0.00 0.00 45 1006.8
20260503170553 68 340 5.0 13.0 0.00 0.00 0.00 38 1006.8
20260503170111 67 266 3.0 13.0 0.00 0.00 0.00 41 1006.7
20260503160109 64 1 5.0 8.0 0.00 0.00 0.00 44 1006.6
20260503150556 61 281 3.0 8.0 0.00 0.00 0.00 48 1006.2
20260503131055 56 249 3.0 12.0 0.00 0.00 0.00 52 1005.8
20260503130555 56 144 5.0 15.0 0.00 0.00 0.00 51 1005.8
20260503110555 50 167 4.0 10.0 0.00 0.00 0.00 59 1005.3
20260503100105 53 181 8.0 17.0 0.00 0.00 0.00 56 1005.8
20260503081554 55 211 4.0 12.0 0.00 0.00 0.00 47 1007.1
20260503081051 55 131 5.0 12.0 0.00 0.00 0.00 49 1007.2
20260503080555 55 208 4.0 13.0 0.00 0.00 0.00 49 1007.4
20260503072552 54 177 2.0 7.0 0.00 0.00 0.00 56 1008.5
20260503072052 54 243 1.0 8.0 0.00 0.00 0.00 56 1008.7
20260503071611 55 230 5.0 8.0 0.00 0.00 0.00 53 1009.0
20260503071051 55 255 6.0 8.0 0.00 0.00 0.00 51 1009.1
20260503070552 55 250 5.0 7.0 0.00 0.00 0.00 51 1009.1
20260503055055 53 223 3.0 7.0 0.00 0.00 0.00 54 1009.2
20260503054611 53 184 2.0 6.0 0.00 0.00 0.00 54 1009.1
20260503054055 53 184 2.0 6.0 0.00 0.00 0.00 53 1009.1
20260503053555 53 186 2.0 5.0 0.00 0.00 0.00 53 1009.1
20260503053057 54 136 2.0 5.0 0.00 0.00 0.00 53 1009.1
20260503052555 54 94 2.0 5.0 0.00 0.00 0.00 52 1009.3
20260503052054 54 115 1.0 5.0 0.00 0.00 0.00 51 1009.3
20260503051553 54 86 1.0 7.0 0.00 0.00 0.00 51 1009.4
20260503051053 54 83 2.0 9.0 0.00 0.00 0.00 51 1009.5
20260503050554 54 92 3.0 9.0 0.00 0.00 0.00 52 1009.6
20260503050056 54 214 3.0 9.0 0.00 0.00 0.00 52 1009.7
20260503045554 54 97 1.0 4.0 0.00 0.00 0.00 53 1009.8
20260503045053 54 155 1.0 3.0 0.00 0.00 0.00 53 1009.9
20260503044559 54 79 1.0 5.0 0.00 0.00 0.00 53 1009.9
20260503044053 54 91 2.0 6.0 0.00 0.00 0.00 53 1009.8
20260503043553 54 184 2.0 6.0 0.00 0.00 0.00 53 1009.9
20260503043057 55 161 2.0 4.0 0.00 0.00 0.00 52 1009.9
20260503042556 55 195 1.0 3.0 0.00 0.00 0.00 51 1009.9
20260503042053 55 204 0.0 3.0 0.00 0.00 0.00 51 1010.0
20260503041554 55 54 1.0 3.0 0.00 0.00 0.00 51 1010.1
20260503041057 55 52 0.0 3.0 0.00 0.00 0.00 52 1010.2
20260503040553 55 0 0.0 3.0 0.00 0.00 0.00 52 1010.1
20260503040058 54 169 1.0 3.0 0.00 0.00 0.00 52 1010.3
20260503035555 54 197 0.0 2.0 0.00 0.00 0.00 53 1010.4
20260503035055 54 283 0.0 1.0 0.00 0.00 0.00 52 1010.4
20260503034556 55 250 0.0 2.0 0.00 0.00 0.00 53 1010.8
20260503034054 55 0 0.0 2.0 0.00 0.00 0.00 52 1010.9
20260503033551 55 264 1.0 3.0 0.00 0.00 0.00 51 1011.1
20260503033103 55 266 1.0 3.0 0.00 0.00 0.00 52 1011.1
20260503032551 55 266 0.0 2.0 0.00 0.00 0.00 52 1011.1
20260503032054 55 219 0.0 3.0 0.00 0.00 0.00 51 1011.1
20260503031557 56 251 1.0 3.0 0.00 0.00 0.00 50 1011.3
20260503031055 56 258 0.0 3.0 0.00 0.00 0.00 50 1011.4
20260503030553 56 262 1.0 4.0 0.00 0.00 0.00 50 1011.5
20260503030053 57 246 2.0 6.0 0.00 0.00 0.00 49 1011.6
20260503025554 57 257 3.0 6.0 0.00 0.00 0.00 48 1011.7
20260503025051 57 265 3.0 4.0 0.00 0.00 0.00 48 1011.6
20260503024554 58 259 2.0 5.0 0.00 0.00 0.00 47 1011.7
20260503024055 58 255 3.0 5.0 0.00 0.00 0.00 47 1011.7
20260503023554 58 251 2.0 4.0 0.00 0.00 0.00 47 1011.6
20260503023058 59 241 2.0 5.0 0.00 0.00 0.00 47 1011.7
20260503022554 59 304 2.0 7.0 0.00 0.00 0.00 46 1011.8
20260503022051 59 314 3.0 9.0 0.00 0.00 0.00 45 1011.9
20260503021555 60 305 4.0 17.0 0.00 0.00 0.00 44 1011.9
20260503021053 60 270 5.0 17.0 0.00 0.00 0.00 43 1011.9
20260503020555 60 237 4.0 13.0 0.00 0.00 0.00 42 1011.8
20260503020100 60 288 7.0 13.0 0.00 0.00 0.00 43 1011.9
20260503015554 59 255 2.0 6.0 0.00 0.00 0.00 43 1011.9
20260503015055 60 294 1.0 8.0 0.00 0.00 0.00 43 1011.9
20260503014603 60 308 2.0 8.0 0.00 0.00 0.00 43 1012.0
20260503014057 60 235 5.0 12.0 0.00 0.00 0.00 41 1011.9
20260503013556 60 267 6.0 12.0 0.00 0.00 0.00 41 1011.9
20260503013058 60 239 4.0 9.0 0.00 0.00 0.00 41 1011.8
20260503012557 60 240 3.0 9.0 0.00 0.00 0.00 40 1011.9
20260503012055 60 252 4.0 9.0 0.00 0.00 0.00 41 1011.9
20260503011556 59 260 3.0 6.0 0.00 0.00 0.00 42 1011.9
20260503011057 59 154 1.0 3.0 0.00 0.00 0.00 42 1011.9
20260503010557 59 149 1.0 4.0 0.00 0.00 0.00 42 1011.9
20260503010056 59 264 1.0 4.0 0.00 0.00 0.00 42 1011.7
20260503005553 60 257 1.0 3.0 0.00 0.00 0.00 41 1011.9
20260503005055 60 198 1.0 3.0 0.00 0.00 0.00 40 1011.7
20260503004557 60 188 1.0 2.0 0.00 0.00 0.00 41 1011.6
20260503004055 60 150 0.0 3.0 0.00 0.00 0.00 41 1011.6
20260503003554 60 302 1.0 3.0 0.00 0.00 0.00 40 1011.7
20260503003105 61 190 1.0 4.0 0.00 0.00 0.00 39 1011.8
20260503002551 61 207 1.0 5.0 0.00 0.00 0.00 38 1011.9
20260503002051 61 275 3.0 5.0 0.00 0.00 0.00 39 1011.9
20260503001605 61 262 3.0 5.0 0.00 0.00 0.00 38 1011.9
20260503001054 61 257 1.0 5.0 0.00 0.00 0.00 37 1012.0
20260503000555 61 239 2.0 5.0 0.00 0.00 0.00 37 1012.0
20260503000109 61 271 3.0 6.0 0.00 0.00 0.00 36 1011.9
20260502235553 61 271 3.0 8.0 0.00 0.00 0.00 37 1012.0
20260502235051 61 249 4.0 8.0 0.00 0.00 0.00 37 1012.1
20260502234612 61 260 3.0 5.0 0.00 0.00 0.00 38 1012.1
20260502234056 61 256 4.0 8.0 0.00 0.00 0.00 36 1012.2
20260502233555 61 245 4.0 8.0 0.00 0.00 0.00 38 1012.3
20260502233058 62 253 5.0 8.0 0.00 0.00 0.00 37 1012.3
20260502232555 62 248 5.0 8.0 0.00 0.00 0.00 35 1012.3
20260502232059 62 252 4.0 8.0 0.00 0.00 0.00 36 1012.3
20260502231603 62 250 5.0 8.0 0.00 0.00 0.00 36 1012.5
20260502231101 62 240 4.0 9.0 0.00 0.00 0.00 36 1012.5
20260502230556 62 257 5.0 9.0 0.00 0.00 0.00 36 1012.5
20260502225556 62 252 7.0 11.0 0.00 0.00 0.00 36 1012.6
20260502225056 62 27 4.0 9.0 0.00 0.00 0.00 34 1012.7
20260502224553 63 326 4.0 12.0 0.00 0.00 0.00 35 1012.8
20260502224056 63 302 6.0 12.0 0.00 0.00 0.00 34 1012.9
20260502223556 63 252 6.0 13.0 0.00 0.00 0.00 35 1012.9
20260502223054 63 230 7.0 13.0 0.00 0.00 0.00 35 1013.0
20260502222556 63 237 6.0 13.0 0.00 0.00 0.00 32 1013.1
20260502222055 63 271 6.0 11.0 0.00 0.00 0.00 32 1013.0
20260502221557 64 316 6.0 11.0 0.00 0.00 0.00 35 1013.2
20260502221056 64 319 3.0 10.0 0.00 0.00 0.00 34 1013.2
20260502220556 63 295 4.0 9.0 0.00 0.00 0.00 35 1013.4
20260502220058 64 225 4.0 11.0 0.00 0.00 0.00 31 1013.3
20260502215556 64 231 6.0 12.0 0.00 0.00 0.00 34 1013.5
20260502215055 63 221 5.0 12.0 0.00 0.00 0.00 33 1013.6
20260502214559 64 224 3.0 8.0 0.00 0.00 0.00 33 1013.6
20260502214055 64 178 4.0 8.0 0.00 0.00 0.00 34 1013.6
20260502213557 63 314 4.0 10.0 0.00 0.00 0.00 36 1013.7
20260502213056 63 243 5.0 10.0 0.00 0.00 0.00 35 1013.8
20260502212556 63 250 2.0 10.0 0.00 0.00 0.00 35 1013.8
20260502212056 63 307 3.0 10.0 0.00 0.00 0.00 34 1013.9
20260502211557 63 242 3.0 10.0 0.00 0.00 0.00 34 1013.9
20260502211056 63 300 4.0 12.0 0.00 0.00 0.00 33 1014.0
20260502210556 62 231 4.0 12.0 0.00 0.00 0.00 36 1014.0
20260502210106 62 221 4.0 9.0 0.00 0.00 0.00 34 1014.2
20260502205556 62 294 4.0 12.0 0.00 0.00 0.00 37 1014.3
20260502205056 62 233 5.0 12.0 0.00 0.00 0.00 35 1014.3
20260502204558 62 314 5.0 12.0 0.00 0.00 0.00 34 1014.4
20260502204053 62 232 3.0 8.0 0.00 0.00 0.00 33 1014.5
20260502203553 62 301 3.0 10.0 0.00 0.00 0.00 35 1014.6
20260502203101 63 239 4.0 10.0 0.00 0.00 0.00 36 1014.7
20260502202553 62 280 3.0 8.0 0.00 0.00 0.00 36 1014.8
20260502202055 62 274 5.0 8.0 0.00 0.00 0.00 35 1014.9
20260502201601 61 248 4.0 11.0 0.00 0.00 0.00 34 1015.0
20260502201052 62 220 4.0 11.0 0.00 0.00 0.00 37 1015.0
20260502200554 62 243 3.0 8.0 0.00 0.00 0.00 39 1015.1
20260502200055 61 243 4.0 8.0 0.00 0.00 0.00 34 1015.1
20260502195554 61 257 4.0 9.0 0.00 0.00 0.00 36 1015.3
20260502195053 61 237 3.0 9.0 0.00 0.00 0.00 35 1015.4
20260502194604 61 271 4.0 9.0 0.00 0.00 0.00 35 1015.5
20260502194053 60 160 3.0 9.0 0.00 0.00 0.00 38 1015.6
20260502193553 60 213 4.0 9.0 0.00 0.00 0.00 34 1015.8
20260502193056 60 284 4.0 8.0 0.00 0.00 0.00 36 1015.8
20260502192556 60 263 3.0 8.0 0.00 0.00 0.00 35 1015.9
20260502192055 60 260 3.0 8.0 0.00 0.00 0.00 39 1015.9
20260502191607 60 281 2.0 9.0 0.00 0.00 0.00 37 1015.9
20260502191056 59 308 4.0 9.0 0.00 0.00 0.00 36 1016.1
20260502190556 59 247 3.0 9.0 0.00 0.00 0.00 34 1016.1
20260502190058 59 218 3.0 7.0 0.00 0.00 0.00 36 1016.1
20260502185555 59 316 4.0 10.0 0.00 0.00 0.00 33 1016.3
20260502185052 59 306 3.0 10.0 0.00 0.00 0.00 35 1016.3
20260502184601 59 302 4.0 8.0 0.00 0.00 0.00 35 1016.4
20260502184052 59 305 4.0 12.0 0.00 0.00 0.00 35 1016.4
20260502183552 59 217 4.0 12.0 0.00 0.00 0.00 33 1016.6
20260502183056 59 127 4.0 10.0 0.00 0.00 0.00 35 1016.6
20260502182554 59 259 3.0 10.0 0.00 0.00 0.00 35 1016.9
20260502182052 58 269 4.0 9.0 0.00 0.00 0.00 37 1017.0
20260502181555 58 207 5.0 9.0 0.00 0.00 0.00 38 1017.0
20260502181057 58 252 4.0 9.0 0.00 0.00 0.00 37 1017.0